Zurück zum Katalog

METEOR 2-10

AktivWetterPO
NORAD 14452·PAYLOAD·🇷🇺 Russia

Gestartet Oct 28, 1983 von Plesetsk Cosmodrome

Loading…

Nächste Überflüge (nächste 24 Stunden)

TLE

AktuellSource: Space-Track

Epoche: Sep 14, 2026, 11:07 UTC

1 14452U 83109A   26257.46335123  .00000085  00000-0  28785-4 0  9993
2 14452  81.1576 266.7657 0089034 303.7615  55.5106 14.27294302230151

Verfolge METEOR 2-10 in Echtzeit mit AllMySat

Download on the App Store